Hourly Weather Rusestii Noi

Today, 20 April, Tuesday

Time Temperature Precipitation Wind Pressure Humidity
00:00 +9°C° 0.1 mm 3 mps 747 mmHg 84%
01:00 +8°C° 0.1 mm 3 mps 747 mmHg 85%
02:00 +8°C° 0 mm 3 mps 746 mmHg 86%
03:00 +8°C° 0.1 mm 3 mps 746 mmHg 86%
04:00 +8°C° 0.1 mm 3 mps 746 mmHg 86%
05:00 +7°C° 0.1 mm 4 mps 746 mmHg 86%
06:00 +7°C° 0 mm 4 mps 746 mmHg 80%
07:00 +8°C° 0 mm 4 mps 746 mmHg 75%
08:00 +8°C° 0 mm 5 mps 746 mmHg 69%
09:00 +9°C° 0 mm 5 mps 746 mmHg 63%
10:00 +12°C° 0 mm 5 mps 746 mmHg 56%
11:00 +13°C° 0 mm 5 mps 746 mmHg 50%
12:00 +13°C° 0 mm 5 mps 746 mmHg 48%
13:00 +13°C° 0 mm 5 mps 746 mmHg 46%
14:00 +13°C° 0 mm 5 mps 746 mmHg 44%
15:00 +13°C° 0 mm 4 mps 746 mmHg 45%
16:00 +13°C° 0 mm 4 mps 746 mmHg 46%
17:00 +14°C° 0 mm 4 mps 746 mmHg 47%
18:00 +12°C° 0 mm 3 mps 746 mmHg 55%
19:00 +11°C° 0 mm 3 mps 747 mmHg 63%
20:00 +9°C° 0 mm 3 mps 747 mmHg 71%
21:00 +9°C° 0 mm 2 mps 747 mmHg 73%
22:00 +8°C° 0 mm 2 mps 747 mmHg 75%
23:00 +8°C° 0 mm 2 mps 747 mmHg 77%

Tomorrow, 21 April, Wednesday

Time Temperature Precipitation Wind Pressure Humidity
00:00 +8°C° 0 mm 2 mps 748 mmHg 78%
01:00 +7°C° 0 mm 2 mps 748 mmHg 78%
02:00 +8°C° 0 mm 1 mps 748 mmHg 79%
03:00 +8°C° 0 mm 1 mps 748 mmHg 80%
04:00 +8°C° 0 mm 1 mps 748 mmHg 81%
05:00 +7°C° 0 mm 1 mps 748 mmHg 81%
06:00 +9°C° 0 mm 1 mps 749 mmHg 76%
07:00 +10°C° 0 mm 1 mps 749 mmHg 70%
08:00 +12°C° 0 mm 2 mps 749 mmHg 64%
09:00 +13°C° 0 mm 2 mps 749 mmHg 58%
10:00 +14°C° 0 mm 2 mps 749 mmHg 53%
11:00 +16°C° 0 mm 3 mps 749 mmHg 47%
12:00 +16°C° 0.1 mm 3 mps 749 mmHg 44%
13:00 +17°C° 0.1 mm 3 mps 749 mmHg 41%
14:00 +18°C° 0.1 mm 3 mps 749 mmHg 39%
15:00 +17°C° 0 mm 2 mps 749 mmHg 41%
16:00 +17°C° 0 mm 2 mps 749 mmHg 43%
17:00 +17°C° 0 mm 2 mps 750 mmHg 45%
18:00 +15°C° 0 mm 2 mps 750 mmHg 49%
19:00 +14°C° 0 mm 1 mps 750 mmHg 53%
20:00 +13°C° 0 mm 1 mps 750 mmHg 56%
21:00 +13°C° 0 mm 1 mps 750 mmHg 59%
22:00 +12°C° 0 mm 2 mps 750 mmHg 61%
23:00 +12°C° 0 mm 2 mps 751 mmHg 63%

Day after tomorrow, 22 April, Thursday

Time Temperature Precipitation Wind Pressure Humidity
00:00 +10°C° 0 mm 2 mps 751 mmHg 65%
01:00 +10°C° 0 mm 2 mps 751 mmHg 67%
02:00 +9°C° 0 mm 2 mps 751 mmHg 69%
03:00 +9°C° 0 mm 2 mps 751 mmHg 70%
04:00 +10°C° 0 mm 1 mps 751 mmHg 72%
05:00 +9°C° 0 mm 1 mps 751 mmHg 73%
06:00 +11°C° 0 mm 1 mps 751 mmHg 67%
07:00 +12°C° 0 mm 1 mps 752 mmHg 62%
08:00 +14°C° 0 mm 1 mps 752 mmHg 57%
09:00 +15°C° 0 mm 2 mps 752 mmHg 52%
10:00 +17°C° 0 mm 2 mps 752 mmHg 47%
11:00 +18°C° 0 mm 3 mps 752 mmHg 42%
12:00 +19°C° 0 mm 3 mps 752 mmHg 40%
13:00 +20°C° 0 mm 4 mps 752 mmHg 37%
14:00 +20°C° 0 mm 4 mps 751 mmHg 35%
15:00 +20°C° 0 mm 4 mps 751 mmHg 37%
16:00 +20°C° 0 mm 4 mps 751 mmHg 38%
17:00 +20°C° 0 mm 4 mps 750 mmHg 39%
18:00 +18°C° 0 mm 4 mps 751 mmHg 45%
19:00 +17°C° 0 mm 4 mps 751 mmHg 50%
20:00 +14°C° 0 mm 3 mps 751 mmHg 56%
21:00 +13°C° 0 mm 3 mps 751 mmHg 60%
22:00 +13°C° 0 mm 3 mps 751 mmHg 65%
23:00 +12°C° 0 mm 3 mps 751 mmHg 69%

23 April, Friday

Time Temperature Precipitation Wind Pressure Humidity
00:00 +11°C° 0.1 mm 3 mps 750 mmHg 72%
01:00 +11°C° 0.1 mm 3 mps 750 mmHg 74%
02:00 +10°C° 0.1 mm 2 mps 750 mmHg 76%
03:00 +10°C° 0 mm 2 mps 750 mmHg 77%
04:00 +10°C° 0 mm 2 mps 750 mmHg 78%
05:00 +10°C° 0 mm 1 mps 750 mmHg 79%
06:00 +10°C° 0 mm 2 mps 751 mmHg 76%
07:00 +11°C° 0 mm 3 mps 751 mmHg 73%
08:00 +12°C° 0 mm 3 mps 751 mmHg 70%
09:00 +12°C° 0 mm 4 mps 751 mmHg 69%
10:00 +12°C° 0 mm 5 mps 752 mmHg 68%
11:00 +12°C° 0 mm 5 mps 752 mmHg 67%
12:00 +10°C° 0.4 mm 6 mps 752 mmHg 71%
13:00 +8°C° 0.4 mm 6 mps 752 mmHg 75%
14:00 +6°C° 0.4 mm 7 mps 753 mmHg 79%
15:00 +7°C° 0.2 mm 6 mps 753 mmHg 76%
16:00 +8°C° 0.2 mm 6 mps 753 mmHg 72%
17:00 +8°C° 0.2 mm 5 mps 753 mmHg 68%
18:00 +7°C° 0 mm 4 mps 753 mmHg 71%
19:00 +7°C° 0 mm 2 mps 754 mmHg 74%
20:00 +8°C° 0 mm 1 mps 754 mmHg 76%
21:00 +7°C° 0 mm 1 mps 754 mmHg 77%
22:00 +7°C° 0 mm 1 mps 754 mmHg 78%
23:00 +7°C° 0 mm 1 mps 754 mmHg 79%

24 April, Saturday

Time Temperature Precipitation Wind Pressure Humidity
00:00 +6°C° 0 mm 1 mps 754 mmHg 80%
01:00 +6°C° 0 mm 1 mps 754 mmHg 81%
02:00 +5°C° 0 mm 2 mps 753 mmHg 82%
03:00 +4°C° 0 mm 3 mps 753 mmHg 83%
04:00 +4°C° 0 mm 4 mps 754 mmHg 83%
05:00 +3°C° 0 mm 5 mps 754 mmHg 83%
06:00 +3°C° 0 mm 6 mps 754 mmHg 79%
07:00 +3°C° 0 mm 6 mps 755 mmHg 75%
08:00 +4°C° 0 mm 7 mps 755 mmHg 70%
09:00 +5°C° 0 mm 7 mps 755 mmHg 61%
10:00 +7°C° 0 mm 6 mps 755 mmHg 52%
11:00 +9°C° 0 mm 6 mps 755 mmHg 43%
12:00 +9°C° 0 mm 5 mps 755 mmHg 41%
13:00 +10°C° 0 mm 5 mps 755 mmHg 40%
14:00 +12°C° 0 mm 4 mps 755 mmHg 38%
15:00 +12°C° 0 mm 4 mps 755 mmHg 38%
16:00 +12°C° 0 mm 3 mps 755 mmHg 39%
17:00 +13°C° 0 mm 2 mps 755 mmHg 39%
18:00 +10°C° 0 mm 2 mps 755 mmHg 43%
19:00 +10°C° 0 mm 1 mps 755 mmHg 47%
20:00 +9°C° 0 mm 1 mps 755 mmHg 52%
21:00 +9°C° 0 mm 1 mps 755 mmHg 51%
22:00 +9°C° 0 mm 1 mps 754 mmHg 51%
23:00 +9°C° 0 mm 1 mps 754 mmHg 50%

25 April, Sunday

Time Temperature Precipitation Wind Pressure Humidity
00:00 +9°C° 0 mm 1 mps 754 mmHg 51%
01:00 +8°C° 0 mm 2 mps 754 mmHg 52%
02:00 +8°C° 0 mm 2 mps 753 mmHg 52%
03:00 +8°C° 0 mm 2 mps 753 mmHg 55%
04:00 +7°C° 0 mm 2 mps 753 mmHg 57%
05:00 +7°C° 0 mm 2 mps 752 mmHg 60%
06:00 +8°C° 0 mm 3 mps 752 mmHg 60%
07:00 +8°C° 0 mm 4 mps 752 mmHg 61%
08:00 +8°C° 0 mm 5 mps 752 mmHg 62%
09:00 +9°C° 0.1 mm 5 mps 752 mmHg 60%
10:00 +10°C° 0.1 mm 5 mps 751 mmHg 57%
11:00 +13°C° 0.1 mm 6 mps 751 mmHg 55%
12:00 +13°C° 0.2 mm 5 mps 751 mmHg 54%
13:00 +13°C° 0.2 mm 5 mps 750 mmHg 52%
14:00 +13°C° 0.2 mm 4 mps 750 mmHg 51%
15:00 +13°C° 0.1 mm 4 mps 749 mmHg 50%
16:00 +13°C° 0.1 mm 3 mps 749 mmHg 50%
17:00 +14°C° 0.1 mm 3 mps 749 mmHg 49%
18:00 +12°C° 0.6 mm 3 mps 749 mmHg 61%
19:00 +10°C° 0.6 mm 4 mps 749 mmHg 72%
20:00 +8°C° 0.6 mm 4 mps 750 mmHg 84%
21:00 +7°C° 2 mm 4 mps 750 mmHg 86%
22:00 +7°C° 2 mm 4 mps 750 mmHg 88%
23:00 +6°C° 2 mm 4 mps 750 mmHg 89%
Show more